Regional Weather Roundup
Issued by NWS Jackson, KY

Home | Current Version | Previous Version | Graphics & Text | Print | Product List | Glossary On
Versions: 1 2 3 4 5 6 7 8 9 10 11 12 13 14 15 16 17 18 19 20 21 22 23 24 25 26 27 28 29 30 31 32 33 34 35 36 37 38 39 40 41 42 43 44 45 46 47 48 49 50
000
ASUS43 KJKL 191411
RWRJKL

EAST KENTUCKY HOURLY WEATHER ROUNDUP
NATIONAL WEATHER SERVICE JACKSON KY
1000 AM EDT FRI SEP 19 2014

NOTE: "FAIR" INDICATES FEW OR NO CLOUDS BELOW 12,000 FEET WITH
NO SIGNIFICANT WEATHER AND/OR OBSTRUCTIONS TO VISIBILITY.

* THESE REPORTS ARE NOT UNDER NWS QUALITY CONTROL AND MAY NOT
  REPORT WEATHER SUCH AS PRECIPITATION AND FOG.

KYZ079-080-083-085-087-088-110-112-115-119-120-191500
...EASTERN KENTUCKY...

CITY           SKY/WX    TMP DP  RH WIND       PRES   REMARKS
JACKSON        SUNNY     60  52  74 CALM      30.15R
LONDON         SUNNY     64  55  72 E5        30.13S
MONTICELLO*    SUNNY     65  57  75 CALM      30.14R
WILLIAMSBURG*  SUNNY     59  59 100 E3        30.13S
MIDDLESBORO*   CLOUDY    55  55 100 CALM      30.14S FOG
HARLAN APT*    CLOUDY    57  57 100 MISG      30.14S
BLACK MTN*       N/A     63  57  82 NE1         N/A
PIKEVILLE APT* FOG       55  55 100 CALM      30.15R VSB 0
BIG SANDY*     SUNNY     59  55  85 NE3       30.15S
MOREHEAD APT*  SUNNY     61  48  63 E9        30.19R
$$

KYZ035-036-041-042-044-050-067-078-099-191500
...CENTRAL KENTUCKY...

CITY           SKY/WX    TMP DP  RH WIND       PRES   REMARKS
MT STERLING*   SUNNY     61  50  67 E9        30.18R
FLEMING/MASON* SUNNY     59  50  72 E7        30.19S
DANVILLE*      SUNNY     61  52  72 E6        30.16R
RICHMOND*      SUNNY     61  52  72 E6        30.14S
LEXINGTON      SUNNY     64  49  57 E9        30.16R
FRANKFORT      SUNNY     61  50  67 E9        30.15S
$$

KYZ091>093-OHZ055-061-077-WVZ005-015-034-035-042-191500
...SOUTHERN OHIO/WEST VIRGINIA...

CITY           SKY/WX    TMP DP  RH WIND       PRES   REMARKS
COVINGTON      MOSUNNY   61  51  70 NE8       30.19R
COLUMBUS       SUNNY     63  48  58 NE13      30.22R
DAYTON         MOSUNNY   60  50  69 E12       30.23R
WILMINGTON     SUNNY     57  51  80 E8        30.21R
HUNTINGTON     SUNNY     59  51  75 NE6       30.16S
CHARLESTON     SUNNY     59  54  83 N5        30.16S
PINEVILLE*     SUNNY     65  63  94 MISG      30.21S
BECKLEY        MOSUNNY   63  56  78 SE8G17    30.20R
BLUEFIELD      CLOUDY    63  57  81 VRB6      30.22R
$$

VAZ002-007-008-TNZ017-027-036-066-071-191500
...SOUTHWEST VIRGINIA/EAST TENNESSEE...

CITY           SKY/WX    TMP DP  RH WIND       PRES   REMARKS
WISE*          SUNNY     66  57  72 SE3       30.18S
JONESVILLE*    SUNNY     63  57  82 CALM      30.15F
ABINGDON*      SUNNY     69  61  75 E8        30.17S
BRISTOL        MOSUNNY   66  57  72 CALM      30.15R
KNOXVILLE      MOSUNNY   66  58  75 N6        30.10S
OAK RIDGE      SUNNY     68  58  70 VRB3      30.12F
CROSSVILLE     SUNNY     68  56  65 SE5       30.13S
NASHVILLE      SUNNY     67  60  78 E3        30.08R
$$

...KEY TO REMARKS...
VSB - VISIBILITY IN MILES
WCI - WIND CHILL INDEX
HX  - HEAT INDEX

$$



USA.gov is the U.S. government's official web portal to all federal, state and local government web resources and services.